Location: Ferintosh
(52.7647°N, 112.9692°W)
Time: 00:23:37
(UTC+00:00)

Vanguard 1 Rocket - Pass Details

Date: 25 May 2024
Orbit: 649 x 4221 km, 34.3° (Epoch: 13 June)

Event Time Altitude Azimuth Distance (km) Brightness Sun altitude
Rises 12:33:13 0° 177° (S) 8,451 12.1 8.7°
Reaches altitude 10° 12:45:44 10° 154° (SSE) 7,226 12.1 10.4°
Maximum altitude 12:52:53 12° 136° (SE) 6,703 12.2 11.4°
Drops below altitude 10° 12:59:20 10° 118° (ESE) 6,461 12.5 12.4°
Sets 13:08:21 0° 93° (E) 6,665 13.2 13.7°
